Location: Ceske Budejovice
(48.9830°N, 14.4670°E)
Time: 00:21:42
(UTC+01:00)

ISS - Visible Passes

Search period start: 20 November 2019 00:00
Search period end: 30 November 2019 00:00
Orbit: 412 x 421 km, 51.6° (Epoch: 20 November)

Date Brightness Start Highest point End Pass type
(mag) Time Alt. Az. Time Alt. Az. Time Alt. Az.
22 Nov -1.7 18:28:32 10° SSW 18:29:56 19° S 18:29:56 19° S visible
23 Nov -1.9 17:40:49 10° S 17:43:10 18° SE 17:43:42 17° SE visible
23 Nov -0.6 19:16:09 10° WSW 19:16:37 13° WSW 19:16:37 13° WSW visible
24 Nov -1.4 16:53:47 10° SSE 16:54:58 12° SE 16:56:10 10° ESE visible
24 Nov -2.8 18:27:50 10° SW 18:30:18 41° SSW 18:30:18 41° SSW visible
25 Nov -2.9 17:39:38 10° SW 17:42:46 37° SSE 17:43:54 28° ESE visible
25 Nov -0.7 19:16:04 10° W 19:16:48 16° W 19:16:48 16° W visible
26 Nov -2.2 16:51:38 10° SSW 16:54:27 25° SE 16:57:17 10° E visible
26 Nov -3.2 18:27:34 10° WSW 18:30:21 58° W 18:30:21 58° W visible
27 Nov -3.8 17:39:08 10° WSW 17:42:29 75° SSE 17:43:51 33° ENE visible
27 Nov -0.6 19:16:03 10° W 19:16:45 15° WNW 19:16:45 15° WNW visible
28 Nov -3.3 16:50:47 10° SW 16:54:03 52° SSE 16:57:18 10° ENE visible
28 Nov -2.9 18:27:30 10° W 18:30:13 47° NW 18:30:13 47° NW visible
29 Nov -3.7 17:38:57 10° W 17:42:17 68° NNW 17:43:39 32° ENE visible
29 Nov -0.6 19:15:58 10° WNW 19:16:32 14° WNW 19:16:32 14° WNW visible
